CW0608 Weather Reports


Display with metric or nautical units.
time (UTC)temp
F
wind
direction
speed
MPH
gust
MPH
rain 1hr
in
rain 24hr
in
rain mn
in
humidity
%
barometer
mb
20260503051805 44 291 1.0 6.0 0.00 0.00 0.00 70 1014.0
20260503050304 45 240 1.0 6.0 0.00 0.00 0.00 67 1014.1
20260503045804 45 267 2.0 6.0 0.00 0.00 0.00 67 1014.1
20260503043804 46 270 3.0 10.0 0.00 0.00 0.00 65 1014.4
20260503043305 46 293 5.0 10.0 0.00 0.00 0.00 65 1014.3
20260503035804 47 289 2.0 9.0 0.00 0.00 0.00 64 1014.5
20260503034304 48 277 4.0 12.0 0.00 0.00 0.00 63 1014.7
20260503033805 48 340 5.0 12.0 0.00 0.00 0.00 63 1014.6
20260503032305 48 329 4.0 13.0 0.00 0.00 0.00 64 1014.7
20260503031804 48 291 3.0 8.0 0.00 0.00 0.00 64 1014.7
20260503030805 49 283 1.0 8.0 0.00 0.00 0.00 63 1014.7
20260503025305 49 332 4.0 8.0 0.00 0.00 0.00 62 1014.7
20260503023804 49 305 2.0 5.0 0.00 0.00 0.00 61 1014.8
20260503023304 49 348 3.0 5.0 0.00 0.00 0.00 61 1014.8
20260503022804 49 276 1.0 12.0 0.00 0.00 0.00 61 1014.8
20260503022305 49 309 2.0 12.0 0.00 0.00 0.00 61 1014.7
20260503021304 50 14 1.0 3.0 0.00 0.00 0.00 61 1014.7
20260503020806 50 283 1.0 3.0 0.00 0.00 0.00 61 1014.6
20260503020304 50 284 2.0 5.0 0.00 0.00 0.00 59 1014.6
20260503014805 50 260 4.0 10.0 0.00 0.00 0.00 58 1014.5
20260503014304 50 300 3.0 10.0 0.00 0.00 0.00 59 1014.5
20260503012305 50 333 1.0 3.0 0.00 0.00 0.00 62 1014.4
20260503011805 50 277 1.0 3.0 0.00 0.00 0.00 62 1014.2
20260503010804 50 306 0.0 3.0 0.00 0.00 0.00 63 1014.0
20260503004304 52 316 1.0 3.0 0.00 0.00 0.00 56 1013.8
20260503003804 52 257 1.0 3.0 0.00 0.00 0.00 56 1013.7
20260503003305 52 248 2.0 5.0 0.00 0.00 0.00 54 1013.6
20260503002804 52 319 1.0 5.0 0.00 0.00 0.00 54 1013.6
20260503001804 53 268 2.0 5.0 0.00 0.00 0.00 53 1013.5
20260502235804 54 273 1.0 6.0 0.00 0.00 0.00 53 1013.4
20260502235305 54 287 2.0 3.0 0.00 0.00 0.00 52 1013.4
20260502233304 54 215 1.0 7.0 0.00 0.00 0.00 51 1013.3
20260502232804 54 311 2.0 7.0 0.00 0.00 0.00 50 1013.3
20260502232305 54 299 1.0 7.0 0.00 0.00 0.00 50 1013.2
20260502225805 55 283 2.0 8.0 0.00 0.00 0.00 48 1013.1
20260502224304 56 336 4.0 8.0 0.00 0.00 0.00 47 1013.0
20260502223805 56 115 0.0 3.0 0.00 0.00 0.00 50 1013.0
20260502222305 56 355 2.0 7.0 0.00 0.00 0.00 47 1012.9
20260502221305 57 304 2.0 10.0 0.00 0.00 0.00 47 1013.0
20260502220804 57 335 3.0 10.0 0.00 0.00 0.00 46 1013.0
20260502215804 57 318 3.0 12.0 0.00 0.00 0.00 46 1012.9
20260502215305 58 327 3.0 12.0 0.00 0.00 0.00 44 1012.9
20260502214804 58 272 2.0 9.0 0.00 0.00 0.00 45 1012.9
20260502214305 58 247 2.0 6.0 0.00 0.00 0.00 46 1012.9
20260502213805 58 151 1.0 7.0 0.00 0.00 0.00 46 1012.9
20260502213304 58 341 2.0 10.0 0.00 0.00 0.00 44 1012.8
20260502212805 58 330 2.0 10.0 0.00 0.00 0.00 45 1012.7
20260502212305 58 239 5.0 14.0 0.00 0.00 0.00 43 1012.7
20260502210804 59 339 4.0 12.0 0.00 0.00 0.00 45 1012.6
20260502210305 59 271 4.0 12.0 0.00 0.00 0.00 41 1012.5
20260502205804 60 293 3.0 12.0 0.00 0.00 0.00 44 1012.5
20260502205305 60 300 6.0 12.0 0.00 0.00 0.00 42 1012.4
20260502204804 60 254 4.0 10.0 0.00 0.00 0.00 41 1012.4
20260502204304 61 296 4.0 9.0 0.00 0.00 0.00 39 1012.4
20260502203806 61 313 3.0 10.0 0.00 0.00 0.00 42 1012.3
20260502203304 61 320 5.0 10.0 0.00 0.00 0.00 41 1012.3
20260502202804 60 286 2.0 9.0 0.00 0.00 0.00 44 1012.4
20260502202305 60 333 4.0 9.0 0.00 0.00 0.00 43 1012.5
20260502194304 59 50 3.0 7.0 0.00 0.00 0.00 47 1012.7
20260502193804 59 57 2.0 7.0 0.00 0.00 0.00 44 1012.8
20260502191804 60 295 2.0 12.0 0.00 0.00 0.00 44 1013.3
20260502191305 59 214 4.0 12.0 0.00 0.00 0.00 44 1013.4
20260502190805 59 84 4.0 12.0 0.00 0.00 0.00 41 1013.6
20260502184304 58 13 3.0 5.0 0.00 0.00 0.00 44 1013.9
20260502183804 59 211 1.0 6.0 0.00 0.00 0.00 45 1014.0
20260502183305 58 267 2.0 6.0 0.00 0.00 0.00 47 1014.1
20260502182804 57 294 0.0 7.0 0.00 0.00 0.00 45 1014.2
20260502182305 58 318 2.0 7.0 0.00 0.00 0.00 43 1014.3
20260502181304 58 241 6.0 10.0 0.00 0.00 0.00 44 1014.3
20260502180806 58 31 2.0 9.0 0.00 0.00 0.00 45 1014.4
20260502164304 56 244 3.0 12.0 0.00 0.00 0.00 51 1014.9
20260502163804 56 264 4.0 12.0 0.00 0.00 0.00 51 1014.9
20260502162804 56 305 2.0 12.0 0.00 0.00 0.00 53 1014.9
20260502162305 56 288 5.0 12.0 0.00 0.00 0.00 52 1014.9
20260502161304 57 278 1.0 6.0 0.00 0.00 0.00 54 1015.0
20260502151804 55 292 4.0 12.0 0.00 0.00 0.00 53 1015.3
20260502151304 55 337 5.0 10.0 0.00 0.00 0.00 52 1015.2
20260502150304 54 55 1.0 12.0 0.00 0.00 0.00 58 1014.9
20260502123804 49 13 3.0 7.0 0.00 0.00 0.00 73 1014.8
20260502123304 49 290 1.0 8.0 0.00 0.00 0.00 72 1014.8
20260502122805 50 0 4.0 8.0 0.00 0.00 0.00 73 1014.9
20260502121306 49 278 2.0 13.0 0.00 0.00 0.00 73 1014.8
20260502120804 49 319 3.0 13.0 0.00 0.00 0.00 73 1014.6
20260502115805 49 354 2.0 7.0 0.00 0.00 0.00 73 1014.8
20260502115306 49 281 2.0 7.0 0.00 0.00 0.00 73 1014.9
20260502114804 48 240 3.0 7.0 0.00 0.00 0.00 74 1014.9
20260502113304 48 9 2.0 7.0 0.00 0.00 0.00 73 1014.7
20260502112805 48 312 3.0 8.0 0.00 0.00 0.00 73 1014.8
20260502112306 48 331 2.0 8.0 0.00 0.00 0.00 73 1014.8
20260502111304 48 275 2.0 8.0 0.00 0.00 0.00 73 1014.7
20260502110804 48 259 3.0 8.0 0.00 0.00 0.00 73 1014.6
20260502110304 48 236 2.0 9.0 0.00 0.00 0.00 73 1014.5
20260502105306 48 272 3.0 10.0 0.00 0.00 0.00 73 1014.4
20260502104306 48 337 3.0 12.0 0.00 0.00 0.00 74 1014.4
20260502103305 48 334 3.0 13.0 0.00 0.00 0.00 72 1014.2
20260502102306 48 276 3.0 13.0 0.00 0.00 0.00 72 1014.1
20260502101304 48 274 3.0 12.0 0.00 0.00 0.00 71 1013.9
20260502100804 48 288 4.0 13.0 0.00 0.00 0.00 72 1013.9
20260502100304 49 293 6.0 17.0 0.00 0.00 0.00 71 1013.8
20260502070804 52 282 2.0 7.0 0.00 0.00 0.00 80 1012.9
20260502070304 52 279 2.0 5.0 0.00 0.00 0.00 80 1013.0
20260502065804 52 309 1.0 7.0 0.00 0.00 0.00 80 1013.0
20260502065306 52 272 2.0 8.0 0.00 0.00 0.00 79 1013.1
20260502063304 52 259 1.0 6.0 0.00 0.00 0.00 80 1013.4
20260502061304 53 266 1.0 5.0 0.00 0.00 0.00 80 1013.7
20260502060804 53 265 2.0 5.0 0.00 0.00 0.00 79 1013.6
20260502060304 53 271 2.0 3.0 0.00 0.00 0.00 81 1013.6